FW0304 Weather Reports


Display with metric or nautical units.
time (UTC)temp
F
wind
direction
speed
MPH
gust
MPH
rain 1hr
in
rain 24hr
in
rain mn
in
humidity
%
barometer
mb
20260901010042 82 101 0.0 0.0 0.00 0.00 0.00 77 1017.2
20260901004537 83 101 0.0 0.0 0.00 0.00 0.00 76 1017.0
20260901003012 84 101 0.0 0.0 0.00 0.00 0.00 75 1017.0
20260901001520 85 98 0.0 0.0 0.00 0.00 0.00 73 1017.0
20260901000023 87 98 0.0 0.0 0.00 0.00 0.00 70 1016.9
20260831234530 88 98 0.0 0.0 0.00 0.00 0.00 69 1016.9
20260831233013 91 99 0.0 0.0 0.00 0.00 0.00 58 1016.8
20260831231519 92 99 0.0 2.0 0.00 0.00 0.00 54 1016.9
20260831230028 92 156 0.0 2.0 0.00 0.00 0.00 54 1017.0
20260831224530 93 179 0.0 2.0 0.00 0.00 0.00 53 1017.1
20260831223038 93 254 0.0 2.0 0.00 0.00 0.00 53 1017.2
20260831221516 93 180 1.0 3.0 0.00 0.00 0.00 52 1017.1
20260831220023 93 111 0.0 2.0 0.00 0.00 0.00 53 1017.3
20260831214526 93 174 0.0 4.0 0.00 0.00 0.00 53 1017.3
20260831213039 93 124 0.0 3.0 0.00 0.00 0.00 52 1017.5
20260831211531 93 109 0.0 4.0 0.00 0.00 0.00 51 1017.7
20260831210020 93 147 1.0 4.0 0.00 0.00 0.00 53 1017.7
20260831204526 93 276 0.0 2.0 0.00 0.00 0.00 53 1017.8
20260831203011 93 273 0.0 2.0 0.00 0.00 0.00 53 1018.0
20260831201512 94 148 0.0 4.0 0.00 0.00 0.00 52 1018.1
20260831200021 94 180 1.0 3.0 0.00 0.00 0.00 52 1018.2
20260831194538 93 313 0.0 4.0 0.00 0.00 0.00 52 1018.3
20260831193009 94 145 1.0 4.0 0.00 0.00 0.00 50 1018.5
20260831191511 94 340 1.0 4.0 0.00 0.00 0.00 52 1018.6
20260831190014 94 352 1.0 3.0 0.00 0.00 0.00 53 1018.6
20260831184523 93 99 1.0 4.0 0.00 0.00 0.00 52 1019.0
20260831183003 93 346 1.0 3.0 0.00 0.00 0.00 54 1019.2
20260831181519 92 346 0.0 3.0 0.00 0.00 0.00 54 1019.5
20260831180014 92 129 1.0 3.0 0.00 0.00 0.00 55 1019.6
20260831174532 92 92 0.0 3.0 0.00 0.00 0.00 56 1019.8
20260831173027 91 183 0.0 2.0 0.00 0.00 0.00 57 1019.9
20260831171509 91 159 0.0 3.0 0.00 0.00 0.00 57 1020.1
20260831170010 91 332 0.0 2.0 0.00 0.00 0.00 62 1020.2
20260831164518 90 160 0.0 4.0 0.00 0.00 0.00 63 1020.4
20260831163030 90 198 0.0 2.0 0.00 0.00 0.00 63 1020.5
20260831161533 91 291 0.0 3.0 0.00 0.00 0.00 60 1020.5
20260831160008 89 84 1.0 2.0 0.00 0.00 0.00 64 1020.5
20260831154547 89 118 2.0 4.0 0.00 0.00 0.00 62 1020.6
20260831153026 89 314 0.0 3.0 0.00 0.00 0.00 66 1020.7
20260831151528 88 107 1.0 2.0 0.00 0.00 0.00 66 1020.8
20260831150009 87 342 0.0 2.0 0.00 0.00 0.00 70 1020.8
20260831144514 86 277 0.0 2.0 0.00 0.00 0.00 73 1020.8
20260831143018 86 111 0.0 2.0 0.00 0.00 0.00 74 1020.7
20260831141527 84 103 0.0 2.0 0.00 0.00 0.00 76 1020.7
20260831140027 82 105 0.0 3.0 0.00 0.00 0.00 78 1020.6
20260831134513 81 89 1.0 2.0 0.00 0.00 0.00 80 1020.7
20260831133018 80 111 0.0 2.0 0.00 0.00 0.00 82 1020.7
20260831131524 78 101 0.0 2.0 0.00 0.00 0.00 84 1020.6
20260831130031 76 113 0.0 2.0 0.00 0.00 0.00 88 1020.5
20260831124537 75 86 0.0 2.0 0.00 0.00 0.00 90 1020.2
20260831123015 74 119 0.0 0.0 0.00 0.00 0.00 93 1020.2
20260831121528 72 119 0.0 0.0 0.00 0.00 0.00 94 1019.7
20260831120036 72 119 0.0 0.0 0.00 0.00 0.00 94 1019.5
20260831114547 71 119 0.0 0.0 0.00 0.00 0.00 93 1019.2
20260831113014 72 119 0.0 0.0 0.00 0.00 0.00 94 1019.0
20260831111515 72 119 0.0 0.0 0.00 0.00 0.00 93 1018.9
20260831110025 72 119 0.0 0.0 0.00 0.00 0.00 93 1018.8
20260831104517 72 119 0.0 0.0 0.00 0.00 0.00 93 1018.7
20260831103010 72 119 0.0 0.0 0.00 0.00 0.00 93 1018.6
20260831101517 72 119 0.0 0.0 0.00 0.00 0.00 93 1018.5
20260831100023 72 119 0.0 0.0 0.00 0.00 0.00 93 1018.4
20260831094527 72 119 0.0 0.0 0.00 0.00 0.00 93 1018.3
20260831093016 72 119 0.0 0.0 0.00 0.00 0.00 93 1018.3
20260831091514 72 119 0.0 0.0 0.00 0.00 0.00 93 1018.2
20260831090020 73 119 0.0 0.0 0.00 0.00 0.00 93 1018.1
20260831084527 73 119 0.0 0.0 0.00 0.00 0.00 92 1018.1
20260831083029 73 119 0.0 2.0 0.00 0.00 0.00 92 1017.9
20260831081508 73 119 0.0 0.0 0.00 0.00 0.00 92 1017.9
20260831080016 73 119 0.0 0.0 0.00 0.00 0.00 1017.9
20260831074526 73 119 0.0 0.0 0.00 0.00 0.00 92 1017.9
20260831073036 74 119 0.0 0.0 0.00 0.00 0.00 92 1017.9
20260831071531 74 119 0.0 0.0 0.00 0.00 0.00 92 1018.0
20260831070015 74 119 0.0 0.0 0.00 0.00 0.00 91 1017.9
20260831064525 74 119 0.0 0.0 0.00 0.00 0.00 92 1017.9
20260831063027 74 119 0.0 0.0 0.00 0.00 0.00 92 1017.9
20260831061532 74 119 0.0 0.0 0.00 0.00 0.00 91 1018.0
20260831060013 74 119 0.0 0.0 0.00 0.00 0.00 91 1017.9
20260831054519 74 119 0.0 0.0 0.00 0.00 0.00 91 1018.0
20260831053027 75 119 0.0 0.0 0.00 0.00 0.00 91 1018.0
20260831051531 75 119 0.0 0.0 0.00 0.00 0.00 90 1018.1
20260831050034 75 119 0.0 0.0 0.00 0.00 0.00 91 1018.1
20260831044515 75 119 0.0 0.0 0.00 0.00 0.00 90 1018.1
20260831043034 75 119 0.0 0.0 0.00 0.00 0.00 90 1018.1
20260831041528 75 119 0.0 0.0 0.00 0.00 0.00 89 1018.0
20260831040033 76 119 0.0 0.0 0.00 0.00 0.00 89 1018.0
20260831034535 76 119 0.0 0.0 0.00 0.00 0.00 88 1018.2
20260831033021 76 119 0.0 0.0 0.00 0.00 0.00 88 1018.2
20260831031534 76 119 0.0 0.0 0.00 0.00 0.00 88 1018.2
20260831030029 77 119 0.0 0.0 0.00 0.00 0.00 87 1018.2
20260831024532 77 119 0.0 0.0 0.00 0.00 0.00 87 1018.2
20260831023018 77 119 0.0 0.0 0.00 0.00 0.00 86 1018.0
20260831021530 78 119 0.0 0.0 0.00 0.00 0.00 85 1018.0
20260831020007 78 119 0.0 0.0 0.00 0.00 0.00 84 1017.9
20260831014509 79 119 0.0 0.0 0.00 0.00 0.00 82 1017.7
20260831013030 79 119 0.0 0.0 0.00 0.00 0.00 81 1017.5
20260831011524 80 119 0.0 0.0 0.00 0.00 0.00 80 1017.5